TimeEST,TemperatureF,Dew PointF,Humidity,Sea Level PressureIn,VisibilityMPH,Wind Direction,Wind SpeedMPH,Gust SpeedMPH,PrecipitationIn,Events,Conditions,WindDirDegrees,DateUTC
12:53 AM,28.9,23.0,78,30.01,9.0,Calm,Calm,-,N/A,,Clear,0,2014-02-23 05:53:00
1:53 AM,32.0,24.1,73,30.00,9.0,Calm,Calm,-,N/A,,Clear,0,2014-02-23 06:53:00
2:53 AM,32.0,23.0,69,29.99,10.0,SW,4.6,-,N/A,,Clear,220,2014-02-23 07:53:00
3:53 AM,30.9,21.9,69,29.99,10.0,North,5.8,-,N/A,,Clear,10,2014-02-23 08:53:00
4:53 AM,26.1,19.9,78,30.02,10.0,WSW,3.5,-,N/A,,Clear,240,2014-02-23 09:53:00
5:53 AM,27.0,21.9,81,30.03,10.0,West,3.5,-,N/A,,Clear,270,2014-02-23 10:53:00
6:53 AM,28.0,23.0,81,30.03,10.0,WNW,3.5,-,N/A,,Clear,290,2014-02-23 11:53:00
7:53 AM,30.9,25.0,79,30.04,10.0,Calm,Calm,-,N/A,,Partly Cloudy,0,2014-02-23 12:53:00
8:53 AM,33.1,27.0,78,30.04,10.0,Calm,Calm,-,N/A,,Clear,0,2014-02-23 13:53:00
9:53 AM,39.0,25.0,57,30.03,10.0,Calm,Calm,-,N/A,,Clear,0,2014-02-23 14:53:00
10:53 AM,43.0,26.1,51,30.02,10.0,Calm,Calm,-,N/A,,Clear,0,2014-02-23 15:53:00
11:53 AM,45.0,27.0,49,29.99,10.0,Calm,Calm,-,N/A,,Clear,0,2014-02-23 16:53:00
12:53 PM,46.9,27.0,46,29.97,10.0,NNW,4.6,-,N/A,,Clear,330,2014-02-23 17:53:00
1:53 PM,46.9,28.0,48,29.95,10.0,Calm,Calm,-,N/A,,Clear,0,2014-02-23 18:53:00
2:53 PM,48.0,27.0,44,29.93,10.0,Calm,Calm,-,N/A,,Clear,0,2014-02-23 19:53:00
3:53 PM,51.1,24.1,35,29.92,10.0,Calm,Calm,-,N/A,,Clear,0,2014-02-23 20:53:00
4:53 PM,46.0,28.9,51,29.92,10.0,Calm,Calm,-,N/A,,Clear,0,2014-02-23 21:53:00
5:53 PM,39.9,30.0,68,29.94,10.0,Calm,Calm,-,N/A,,Overcast,0,2014-02-23 22:53:00
6:53 PM,44.1,30.9,60,29.96,10.0,NW,11.5,-,0.00,Rain,Light Rain,320,2014-02-23 23:53:00
7:53 PM,41.0,35.1,79,29.96,9.0,WNW,8.1,-,0.03,Rain,Light Rain,300,2014-02-24 00:53:00
8:26 PM,39.9,36.0,86,29.94,8.0,NW,3.5,-,0.03,Rain,Light Rain,320,2014-02-24 01:26:00
8:53 PM,39.0,35.1,86,29.96,8.0,North,4.6,-,0.05,Rain,Light Rain,10,2014-02-24 01:53:00
9:53 PM,37.9,35.1,89,29.96,5.0,WNW,3.5,-,0.05,Rain,Light Rain,300,2014-02-24 02:53:00
10:43 PM,37.9,33.1,83,29.92,10.0,WSW,3.5,-,0.02,Rain,Light Rain,250,2014-02-24 03:43:00
10:53 PM,37.9,33.1,83,29.94,10.0,West,5.8,-,0.02,,Overcast,260,2014-02-24 03:53:00
11:53 PM,37.9,32.0,79,29.92,10.0,West,4.6,-,N/A,,Overcast,270,2014-02-24 04:53:00